Regional Weather Roundup
Issued by NWS

Home | Current Version | Previous Version | Text Only | Print | Product List | Glossary On
Versions: 1 2 3 4 5 6 7 8 9 10 11 12 13 14 15 16 17 18 19 20 21 22 23 24 25 26 27 28
000
ASUS46 KSEW 230710
RWRWA

WASHINGTON REGIONAL WEATHER ROUNDUP
NATIONAL WEATHER SERVICE SEATTLE WA
1200 AM PDT WED APR 23 2014

NOTE:"FAIR" INDICATES FEW OR NO CLOUDS BELOW 12,000 FEET WITH NO
SIGNIFICANT WEATHER AND/OR OBSTRUCTIONS TO VISIBILITY.

WAZ505-507>509-230800-
SEATTLE, TACOMA, EVERETT, AND VICINITY

CITY           SKY/WX    TMP DP  RH WIND       PRES   REMARKS
EVERETT        LGT RAIN  44  41  89 S18       29.86S
BOEING FIELD   CLOUDY    47  42  83 S12       29.88S
RENTON         CLOUDY    45  44  97 SE5       29.89R
SEATAC AIRPORT CLOUDY    44  42  93 S9        29.88S
JBLM-MCCHORD   LGT RAIN  44  44  99 S8        29.89S
PUYALLUP       LGT RAIN  43  41  93 S5        29.89S
JBLM-FT LEWIS  DRIZZLE   45  43  93 S8        29.89R
TACOMA NARROWS CLOUDY    44  41  89 MISG      29.88S
$$

WAZ001-503-506-510-514-515-230800-
NORTH INTERIOR

CITY           SKY/WX    TMP DP  RH WIND       PRES   REMARKS
BELLINGHAM     CLOUDY    47  39  74 SE10G20   29.83S
FRIDAY HARBOR  CLOUDY    44  42  93 CALM      29.83S
EASTSOUND      CLOUDY    46  41  81 S8        29.81S
PORT ANGELES   PTCLDY    40  39  97 SW6       29.82S
NAS WHIDBEY    LGT RAIN  49  41  74 SE13      29.84S
BURLINGTON     CLOUDY    46  41  81 SE10G20   29.86R
$$

WAZ020-022-039-040-504-511-512-230800-
SOUTHWEST INTERIOR

CITY           SKY/WX    TMP DP  RH WIND       PRES   REMARKS
SHELTON        LGT RAIN  43  41  93 SE6       29.85S
OLYMPIA        LGT RAIN  44  41  89 S10       29.89R
CHEHALIS       CLOUDY    45  41  87 S8        29.92R
KELSO          CLOUDY    46  41  81 S8        29.96R
VANCOUVER      CLOUDY    47  43  86 VRB7G17   29.95S
SCAPPOOSE, OR  LGT RAIN  47  44  90 S3        29.93S
PORTLAND, OR   LGT RAIN  47  43  86 S16G23    29.96R
$$

WAZ021-516-517-230800-
WASHINGTON COAST

CITY           SKY/WX    TMP DP  RH WIND       PRES   REMARKS
FORKS          CLOUDY    42  41  96 E5        29.82S
HOQUIAM        MOCLDY    46  44  93 S10       29.86R
ASTORIA, OR    CLOUDY    49  44  83 SW9       29.89R
$$

WAZ019-023-024-040-518-519-230800-
CASCADE MOUNTAINS AND COLUMBIA GORGE

CITY           SKY/WX    TMP DP  RH WIND       PRES   REMARKS
STAMPEDE PASS  NOT AVBL
TROUTDALE, OR  LGT RAIN  48  42  80 SW12G18   29.95R
THE DALLES, OR CLOUDY    44  39  82 S6        29.94S
$$

WAZ026-027-041>044-520-521-230800-
EAST SLOPES

CITY           SKY/WX    TMP DP  RH WIND       PRES   REMARKS
OMAK           PTCLDY    34  25  69 W3        29.79S
WENATCHEE      PTCLDY    44  27  51 CALM      29.83R
ELLENSBURG     PTCLDY    37  31  78 SE9       29.84S
YAKIMA         MOCLDY    46  33  60 W5        29.85S
$$

WAZ028-034-035-230800-
COLUMBIA BASIN

CITY           SKY/WX    TMP DP  RH WIND       PRES   REMARKS
EPHRATA        MOCLDY    40  30  67 W7        29.83R
MOSES LAKE     PTCLDY    44  30  57 SW7       29.84S
HANFORD        NOT AVBL
PASCO          PTCLDY    48  35  60 SW16      29.91R
HERMISTON, OR  MOCLDY    41  35  79 S7        29.93S
$$

WAZ036>038-230800-
NORTHEAST WASHINGTON

CITY           SKY/WX    TMP DP  RH WIND       PRES   REMARKS
SPOKANE GEIGER CLEAR     36  25  64 SW8       29.81R
SPOKANE FELTS  CLEAR     35  31  85 CALM      29.82R
FAIRCHILD AFB  CLEAR     36  24  62 SW10      29.80R
COEURDALENE,ID PTCLDY    36  30  80 CALM      29.81R
DEER PARK      CLEAR     28  27  96 CALM      29.80R
$$

WAZ029>033-230800-
SOUTHEAST WASHINGTON

CITY           SKY/WX    TMP DP  RH WIND       PRES   REMARKS
PULLMAN        CLEAR     37  30  75 SW6       29.88R
LEWISTON, ID   PTCLDY    45  29  53 VRB3      29.89R
WALLA WALLA    CLEAR     45  33  63 S13       29.93S
PENDLETON, OR  CLEAR     38  31  76 S7        29.92S
$$



USA.gov is the U.S. government's official web portal to all federal, state and local government web resources and services.